Location: Beverley
(50.2667°N, 107.9667°W)
Time: 03:05:30
(UTC+00:00)

UWE-3 - Visible Passes

Search period start: 26 June 2022 00:00
Search period end: 06 July 2022 00:00
Orbit: 581 x 680 km, 97.7° (Epoch: 25 June)

Date Brightness Start Highest point End Pass type
(mag) Time Alt. Az. Time Alt. Az. Time Alt. Az.
26 Jun ? 10:13:17 10° NNE 10:17:17 38° E 10:21:21 10° SSE visible
28 Jun ? 09:19:44 10° ENE 09:21:31 12° E 09:23:18 10° ESE visible
29 Jun ? 09:39:10 10° NE 09:42:16 19° E 09:45:25 10° SE visible
30 Jun ? 09:59:11 10° NE 10:02:58 29° E 10:06:48 10° SSE visible
01 Jul ? 10:19:25 10° NNE 10:23:35 45° E 10:27:50 10° S visible
03 Jul ? 09:25:23 10° NE 09:27:51 15° E 09:30:20 10° ESE visible
04 Jul ? 09:45:06 10° NE 09:48:34 22° E 09:52:05 10° SE visible
05 Jul ? 10:05:13 10° NNE 10:09:14 34° E 10:13:19 10° SSE visible
